Weather History for Trinidad, CO

Change the Weather History Date:

Thursday, June 7, 2012

  Actual Average Record
Temperature  
Mean Temperature 73 °F 66 °F  
Max Temperature 89 °F 81 °F 96 °F (1981)
Min Temperature 56 °F 50 °F 39 °F (1951)
Degree Days  
Heating Degree Days 0 2  
Month to date heating degree days 0 19  
Since 1 June heating degree days 0 19  
Since 1 July heating degree days 4733 5514  
Cooling Degree Days 8 3  
Month to date cooling degree days 40 18  
Year to date cooling degree days 86 46  
Since 1 June cooling degree days 40 18  
Growing Degree Days 23 (Base 50)    
Moisture  
Dew Point 49 °F    
Average Humidity 49    
Maximum Humidity 75    
Minimum Humidity 22    
Precipitation  
Precipitation 0.00 in 0.05 in 1.59 in (1949)
Month to date precipitation 0.01 0.36  
Year to date precipitation 4.88  
Snow  
Snow 0.00 in - - ()
Month to date snowfall 0.0  
Since 1 June snowfall 0.0  
Snow Depth 0.00 in    
Sea Level Pressure  
Sea Level Pressure 29.78 in    
Wind  
Wind Speed 14 mph (SSE)    
Max Wind Speed 36 mph    
Max Gust Speed 45 mph    
Visibility 10 miles    
Events      
T = Trace of Precipitation, MM = Missing Value Source: NWS Daily Summary

Daily Weather History Graph

Daily Weather History Graph

Search for Another Location

Airport:

Trip Planner

Search our weather history database for the weather conditions in past years. The results will help you decide how hot, cold, wet, or windy it might be!

Date:

Astronomy

Jun. 07, 2012 Rise Set
Actual Time 5:36 AM MDT 8:16 PM MDT
Civil Twilight 5:06 AM MDT 8:46 PM MDT
Nautical Twilight 4:27 AM MDT 9:25 PM MDT
Astronomical Twilight 3:44 AM MDT 10:08 PM MDT
Moon 11:11 PM MDT (6/7) 9:08 AM MDT (6/7)
Length of Visible Light 15h 40m
Length of Day
14h 39m
Waning Gibbous, 85% of the Moon is Illuminated
Jun 7
Waning Gibbous
Jun 11
Last Quarter
Jun 19
New
Jun 26
First Quarter
Jul 3
Full

Hourly Weather History & Observations

Time (MDT) Temp. Dew Point Humidity Pressure Visibility Wind Dir Wind Speed Gust Speed Precip Events Conditions
1:01 AM 66.2 °F 53.6 °F 64% 30.04 in 10.0 mi SSW 11.5 mph - N/A   Clear
1:54 AM 66.9 °F 50.0 °F 54% 29.76 in 10.0 mi SE 4.6 mph - N/A   Clear
2:54 AM 64.9 °F 50.0 °F 58% 29.78 in 10.0 mi East 10.4 mph - N/A   Partly Cloudy
3:54 AM 64.9 °F 51.1 °F 61% 29.77 in 10.0 mi South 11.5 mph - N/A   Clear
4:54 AM 60.1 °F 52.0 °F 75% 29.81 in 10.0 mi Variable 3.5 mph - N/A   Clear
5:54 AM 59.0 °F 52.0 °F 78% 29.82 in 10.0 mi North 4.6 mph - N/A   Clear
6:54 AM 62.1 °F 53.1 °F 72% 29.87 in 10.0 mi NW 6.9 mph - N/A   Clear
7:54 AM 68.0 °F 53.1 °F 59% 29.83 in 10.0 mi ENE 5.8 mph - N/A   Clear
8:54 AM 72.0 °F 52.0 °F 49% 29.81 in 10.0 mi North 6.9 mph - N/A   Clear
9:54 AM 75.0 °F 48.9 °F 40% 29.81 in 10.0 mi NE 6.9 mph - N/A   Clear
10:54 AM 78.1 °F 46.9 °F 33% 29.80 in 10.0 mi ESE 4.6 mph - N/A   Clear
11:54 AM 80.1 °F 48.0 °F 32% 29.79 in 10.0 mi Variable 5.8 mph - N/A   Clear
12:54 PM 82.0 °F 45.0 °F 27% 29.76 in 10.0 mi Variable 5.8 mph - N/A   Clear
1:54 PM 84.9 °F 46.0 °F 26% 29.72 in 10.0 mi SSE 18.4 mph 24.2 mph N/A   Clear
2:54 PM 87.1 °F 45.0 °F 23% 29.71 in 10.0 mi SSE 18.4 mph 31.1 mph N/A   Clear
3:54 PM 84.0 °F 44.1 °F 25% 29.70 in 10.0 mi South 20.7 mph 29.9 mph N/A   Clear
4:54 PM 84.0 °F 46.9 °F 27% 29.69 in 10.0 mi South 34.5 mph 42.6 mph N/A   Clear
5:54 PM 82.0 °F 46.9 °F 29% 29.69 in 10.0 mi South 29.9 mph 42.6 mph N/A   Clear
6:54 PM 80.1 °F 46.9 °F 31% 29.69 in 10.0 mi South 31.1 mph 43.7 mph N/A   Clear
7:54 PM 77.0 °F 48.0 °F 36% 29.71 in 10.0 mi SSW 24.2 mph 35.7 mph N/A   Clear
8:54 PM 73.9 °F 51.1 °F 45% 29.73 in 10.0 mi South 24.2 mph 39.1 mph N/A   Clear
9:54 PM 71.1 °F 53.1 °F 53% 29.77 in 10.0 mi SW 15.0 mph 31.1 mph N/A   Clear
10:54 PM 69.1 °F 51.1 °F 53% 29.80 in 10.0 mi Variable 4.6 mph - N/A   Clear
11:54 PM 64.9 °F 53.1 °F 65% 29.79 in 10.0 mi SSW 6.9 mph - N/A   Clear